Find Gorizont

NORAD ID: 11440 Int'l Des: 1979-062 Owner: MSVYAZ Country: SU operational
HEOCIRCULARGSO

現在のビュー

3D地球を読み込み中...

Gorizontについて

説明を読み込み中...

次回通過

Passes for default location (London). Set your location on the main map for personalized predictions.

高度履歴

Loading altitude history...

軌道要素

1 11440U 79062A 26150.02316609 .00000009 00000-0 00000+0 0 9993
2 11440 5.7804 286.0832 0004669 359.2573 37.2163 1.00242348137843
Epoch: May 30, 2026 • Age: 17 hours

現在のステータス

高度 35789.2 km
速度 3.07 km/s
衛星直下点 -5.56°S, 66.61°E
打ち上げ日 Jul 5, 1979
運用期間 46.9 years
タイプ other

技術仕様

分類 Payload
質量 2120.00 kg
乾燥質量 2000.00 kg
総質量 2120.00 kg
長さ 5.50 m
直径 3.30 m
スパン 9.50 m
形状 Cyl + 2 Pan
製造者 NPOPM
バスタイプ Gorizont
フェーズステータス In Orbit
所有者/国 MSVYAZ/SU

Most Searched